Miscellaneous Local Product
Issued by NWS Hastings, NE

Home | Current Version | Previous Version | Graphics & Text | Print | Product List | Glossary On
Versions: 1 2 3 4 5 6 7 8 9 10 11 12 13 14 15 16 17 18 19 20 21 22 23 24 25 26 27 28 29 30 31 32 33 34 35 36 37 38 39 40 41 42 43 44 45 46 47 48 49 50
000
AXUS43 KGID 221702
MISGRI

GID CWA HOURLY WEATHER ROUNDUP
NATIONAL WEATHER SERVICE HASTINGS NE
1200 PM CDT TUE JUL 22 2014

NOTE: "FAIR" INDICATES FEW OR NO CLOUDS BELOW 12,000 FEET WITH NO
SIGNIFICANT WEATHER AND/OR OBSTRUCTIONS TO VISIBILITY.

...SOUTH CENTRAL NEBRASKA...

CITY           SKY/WX    TMP DP  RH WIND       PRES   REMARKS
GRAND ISLAND   MOSUNNY   86  67  52 NE7       30.10R
HASTINGS       MOSUNNY   85  66  53 NE7       30.10R
KEARNEY        SUNNY     88  63  42 E14       30.13R
ORD            NOT AVBL
YORK           MOSUNNY   84  73  70 NE7       30.08R HX  91
AURORA         PTSUNNY   84  71  64 NE6       30.09R
LEXINGTON      SUNNY     87  62  42 NE13      30.16R
HOLDREGE       MOSUNNY   86  64  48 NE14      30.11R
HEBRON         MOSUNNY   90  67  46 SW3       30.03F HX  93

...NEBRASKA PANHANDLE...

CITY           SKY/WX    TMP DP  RH WIND       PRES   REMARKS
CHADRON        SUNNY     84  57  39 NE8       30.23R
ALLIANCE       SUNNY     88  51  28 SE13      30.26R
SCOTTSBLUFF    SUNNY     84  59  42 E10       30.26R
SIDNEY         SUNNY     87  54  32 E8        30.28S

...WESTERN AND NORTH CENTRAL NEBRASKA...

CITY           SKY/WX    TMP DP  RH WIND       PRES   REMARKS
VALENTINE      MOSUNNY   79  62  56 NE9       30.21R
AINSWORTH      MOSUNNY   77  63  61 N3        30.21R
ONEILL         MOSUNNY   80  60  50 N9        30.14S
BROKEN BOW     SUNNY     85  61  44 E10       30.17R
IMPERIAL       SUNNY     86  59  39 N9        30.20F
NORTH PLATTE   SUNNY     87  59  38 SE13      30.17S
MCCOOK         SUNNY     89  63  41 NE12      30.15R HX  90

...EASTERN NEBRASKA...

CITY           SKY/WX    TMP DP  RH WIND       PRES   REMARKS
NORFOLK        PTSUNNY   81  63  54 N8        30.10R
SO SIOUX CITY  MOSUNNY   81  67  62 N15       30.07R
TEKAMAH        PTSUNNY   85  66  53 N16       30.05R
COLUMBUS       PTSUNNY   84  66  54 N15G21    30.09R
ALBION         MOSUNNY   81  62  52 N10       30.12F
OMAHA EPPLEY   PTSUNNY   92  73  53 VRB3      29.99R HX 100
OFFUTT AFB     PTSUNNY   91  78  64 E6        29.99R HX 105
MILLARD        MOSUNNY   91  75  58 CALM      29.99R HX 101
LINCOLN        MOSUNNY   92  73  53 E7        30.02R HX 100
NEBRASKA CITY  SUNNY     88  72  58 CALM      30.00F HX  95
BEATRICE       SUNNY     85  72  63 W3        30.02S HX  91
FALLS CITY     SUNNY     93  74  53 VRB6      30.00S HX 103

...NORTHERN KANSAS...

CITY           SKY/WX    TMP DP  RH WIND       PRES   REMARKS
GOODLAND       SUNNY     87  61  41 NE12      30.18R
HILL CITY      SUNNY     90  63  40 S7        30.09S HX  91
NORTON         SUNNY     90  57  33 SE7       30.09S
PHILLIPSBURG   SUNNY     91  63  38 S6        30.06F HX  92
SMITH CENTER   SUNNY     93  61  33 S7        30.06S HX  93
HAYS           MOSUNNY   90  64  43 SW9       30.09F HX  91
RUSSELL        MOSUNNY   89  68  49 S6        30.06F HX  93
CONCORDIA      MOSUNNY   95  66  38 SW7       30.04S HX  98
SALINA         SUNNY     96  68  39 VRB3      30.05F HX 101
TOPEKA         SUNNY     93  73  52 CALM      30.03F HX 102



USA.gov is the U.S. government's official web portal to all federal, state and local government web resources and services.